Location: Aranbee
(34.0885°N, 118.2342°W)
Time: 08:49:12
(UTC+00:00)

Courier 1B Rocket - Pass Details

Date: 05 December 2020
Orbit: 920 x 1202 km, 28.2° (Epoch: 27 January)

Event Time Altitude Azimuth Distance (km) Brightness Sun altitude
Rises 14:09:02 0° 268° (W) 4,064 - -7.5°
Exits shadow 14:10:20 - 266° (W) 3,637 7.4 -7.2°
Reaches altitude 10° 14:11:57 10° 263° (W) 3,117 7.1 -6.9°
Maximum altitude 14:19:25 49° 191° (SSW) 1,500 6.1 -5.5°
Drops below altitude 10° 14:26:48 10° 119° (ESE) 3,092 9.6 -4.1°
Sets 14:29:41 0° 114° (ESE) 4,029 11.7 -3.6°
